Regional Weather Roundup
Issued by NWS

Home | Current Version | Previous Version | Text Only | Print | Product List | Glossary Off
Versions: 1 2 3 4 5 6 7 8 9 10 11 12 13 14 15 16 17 18 19 20 21 22 23 24 25 26 27 28 29 30 31 32 33 34 35 36 37 38 39 40 41 42 43 44 45 46 47 48 49 50

000
ASUS43 KLSX 310607
RWRMO

WEATHER SUMMARY FOR MISSOURI
NATIONAL WEATHER SERVICE SPRINGFIELD MO
1200 AM CST SAT JAN 31 2015

NOTE: "FAIR" INDICATES FEW OR NO CLOUDS BELOW 12,000 FEET WITH NO
       SIGNIFICANT WEATHER AND/OR OBSTRUCTIONS TO VISIBILITY.
       CURRENT SKY AND/OR WEATHER CONDITIONS ARE NOT AVAILABLE FOR
       CHILLICOTHE AND FARMINGTON.

MOZ001>031-035>038-043-044-053-054-310700-
...NORTHERN AND WESTERN MISSOURI...

CITY           SKY/WX    TMP DP  RH WIND       PRES   REMARKS
KANSAS CTY INT CLOUDY    33  23  66 S7        30.32F WCI  27
6HR MIN TEMP:  29; 6HR MAX TEMP:  35;

KANSAS C DTWN  CLOUDY    37  22  54 S6        30.34F
6HR MIN TEMP:  36; 6HR MAX TEMP:  39;

LEE`S SUMMIT   CLOUDY    36  20  52 S7        30.34F
6HR MIN TEMP:  35; 6HR MAX TEMP:  38;

ST JOSEPH      CLOUDY    30  23  75 S5        30.33F WCI  25
6HR MIN TEMP:  24; 6HR MAX TEMP:  32;

CHILLICOTHE      N/A     29  20  69 S3        30.36S
6HR MIN TEMP:  28; 6HR MAX TEMP:  32;

KIRKSVILLE     CLOUDY    29  21  72 S7        30.33F WCI  22
6HR MIN TEMP:  24; 6HR MAX TEMP:  30;


$$
MOZ066>068-077>081-088>096-101>105-310700-
...SOUTHWEST MISSOURI...

CITY           SKY/WX    TMP DP  RH WIND       PRES   REMARKS
SPRINGFIELD    CLOUDY    39  18  42 S9        30.34R
6HR MIN TEMP:  34; 6HR MAX TEMP:  42;

JOPLIN         CLOUDY    38  28  67 CALM      30.36F
6HR MIN TEMP:  37; 6HR MAX TEMP:  43;


$$
MOZ032>034-039>042-045>050-055>058-069>072-310700-
...CENTRAL MISSOURI...

CITY           SKY/WX    TMP DP  RH WIND       PRES   REMARKS
COLUMBIA       CLOUDY    30  19  63 SE6       30.36F WCI  24
6HR MIN TEMP:  28; 6HR MAX TEMP:  35;

JEFFERSON CITY CLOUDY    27  20  75 SE5       30.39F WCI  22
6HR MIN TEMP:  27; 6HR MAX TEMP:  36;

ROLLA          CLOUDY    31  19  61 SE7       30.35F WCI  24
6HR MIN TEMP:  28; 6HR MAX TEMP:  33;

SEDALIA        CLOUDY    33  21  61 CALM      30.37F
6HR MIN TEMP:  31; 6HR MAX TEMP:  37;

WHITEMAN AFB   CLOUDY    32  20  61 NE2       30.35F
WARRENSBURG    CLOUDY    32  21  64 S3        30.36F
OSAGE BEACH    CLOUDY    34  18  51 CALM      30.36F

$$
MOZ051-052-059>065-310700-
...EAST CENTRAL MISSOURI...

CITY           SKY/WX    TMP DP  RH WIND       PRES   REMARKS
ST LOUIS INTL  CLOUDY    33  19  56 S6        30.40F WCI  28
6HR MIN TEMP:  30; 6HR MAX TEMP:  36;

SPIRIT OF STL  CLOUDY    25  20  81 CALM      30.39F
6HR MIN TEMP:  23; 6HR MAX TEMP:  30;

ST CHARLES     CLOUDY    27  23  85 CALM      30.40F
6HR MIN TEMP:  24; 6HR MAX TEMP:  33;


$$
MOZ072>076-082>087-097>100-106>115-310700-
...SOUTH CENTRAL AND SOUTHEAST MISSOURI...

CITY           SKY/WX    TMP DP  RH WIND       PRES   REMARKS
CAPE GIRARDEAU MOCLDY    30  25  81 CALM      30.43F
6HR MIN TEMP:  29; 6HR MAX TEMP:  39;

FARMINGTON     CLOUDY    28  19  69 SE5       30.41F WCI  23
6HR MIN TEMP:  28; 6HR MAX TEMP:  36;

POPLAR BLUFF   MOCLDY    30  25  81 CALM      30.42F
6HR MIN TEMP:  29; 6HR MAX TEMP:  38;

WEST PLAINS    CLOUDY    34  21  59 SE5       30.37F WCI  30
6HR MIN TEMP:  30; 6HR MAX TEMP:  41;


$$


USA.gov is the U.S. government's official web portal to all federal, state and local government web resources and services.